User: anonymous   Login
Location: Unspecified
(0.0000°N, 0.0000°E)
Time: 07:34:55
(UTC+00:00)
Language:

APRIZESAT 9 - Orbit

View from above orbital plane
View from above orbital plane
View from above satellite
View from above satellite

Ground track
Ground track

The orbit data is extracted from the following two-line orbital elements,

1 40018U 14033J   24113.91882725  .00003048  00000-0  47862-3 0  9992
2 40018  97.7945 261.8333 0068657 203.5029 156.3037 14.71740908527948
Epoch (UTC): 22 April 2024 22:03:06
Eccentricity: 0.0068657
inclination: 97.7945°
perigee height: 607 km
apogee height: 704 km
right ascension of ascending node: 261.8333°
argument of perigee: 203.5029°
revolutions per day: 14.71740908
mean anomaly at epoch: 156.3037°
orbit number at epoch: 52794

The dashed part of the orbit path shows where the satellite is in the earth's shadow,  

DLR